Weather History for CXRB - February, 2013

Change the Weather History Date:

Wednesday, February 20, 2013

  Actual Average Record
Temperature  
Mean Temperature -43 °F -  
Max Temperature -41 °F - - ()
Min Temperature -45 °F - - ()
Degree Days  
Heating Degree Days 108    
Moisture  
Dew Point -52 °F    
Average Humidity 59    
Maximum Humidity 64    
Minimum Humidity 40    
Precipitation  
Precipitation 0.00 in - - ()
Sea Level Pressure  
Sea Level Pressure 30.46 in    
Wind  
Wind Speed 6 mph ()    
Max Wind Speed 9 mph    
Max Gust Speed -    
T = Trace of Precipitation, MM = Missing Value Source: Averaged Metar Reports

Daily Weather History Graph

Daily Weather History Graph

Search for Another Location

Airport or City:

Trip Planner

Search our weather history database for the weather conditions in past years. The results will help you decide how hot, cold, wet, or windy it might be!

Date:

Astronomy

Feb. 20, 2013 Rise Set
Actual Time 8:11 AM MST 2:57 PM MST
Civil Twilight 6:41 AM MST 4:28 PM MST
Nautical Twilight 5:08 AM MST 6:01 PM MST
Astronomical Twilight 3:34 AM MST 7:36 PM MST
Moon No Moon Rise No Moon Set
Length of Visible Light 9h 47m
Length of Day
6h 46m
Waxing Gibbous, 76% of the Moon is Illuminated
Feb 20
Waxing Gibbous
Feb 25
Full
Mar 4
Last Quarter
Mar 11
New
Mar 19
First Quarter

Hourly Weather History & Observations

Time (MST) Temp. Windchill Dew Point Humidity Pressure Visibility Wind Dir Wind Speed Gust Speed Precip Events Conditions
12:00 AM -41.8 °F -65.1 °F -49.7 °F 64% 30.47 in - NNW 8.1 mph - N/A   Unknown
1:00 AM -43.1 °F -66.6 °F -51.2 °F 63% 30.47 in - NW 8.1 mph - N/A   Unknown
2:00 AM -43.2 °F -60.4 °F -51.3 °F 63% 30.48 in - NNW 4.6 mph - N/A   Unknown
4:00 AM -43.1 °F -68.3 °F -51.2 °F 63% 30.48 in - NW 9.2 mph - N/A   Unknown
5:00 AM -44 °F - -52 °F 44% 30.48 in - NW 8.1 mph - -  
5:00 AM -43.6 °F -67.3 °F -51.7 °F 63% 30.48 in - NW 8.1 mph - N/A   Unknown
6:00 AM -44.7 °F -66.7 °F -53.0 °F 62% 30.47 in - NNW 6.9 mph - N/A   Unknown
7:00 AM -43.4 °F -63.1 °F -51.5 °F 63% 30.47 in - NNW 5.8 mph - N/A   Unknown
8:00 AM -44.0 °F -67.7 °F -52.2 °F 62% 30.46 in - NNW 8.1 mph - N/A   Unknown
9:00 AM -43.6 °F -65.4 °F -51.7 °F 63% 30.45 in - NNW 6.9 mph - N/A   Unknown
10:00 AM -44.3 °F -66.3 °F -52.6 °F 62% 30.46 in - NNW 6.9 mph - N/A   Unknown
11:00 AM -44 °F - -52 °F 41% 30.45 in - NNW 5.8 mph - -  
11:00 AM -44.1 °F -64.0 °F -52.4 °F 62% 30.45 in - NNW 5.8 mph - N/A   Unknown
12:00 PM -44.0 °F -65.9 °F -52.2 °F 62% 30.45 in - NW 6.9 mph - N/A   Unknown
1:00 PM -43.8 °F -63.5 °F -52.1 °F 62% 30.46 in - NNW 5.8 mph - N/A   Unknown
2:00 PM -44.0 °F -63.7 °F -52.2 °F 62% 30.47 in - NNW 5.8 mph - N/A   Unknown
3:00 PM -44.7 °F -66.7 °F -53.0 °F 62% 30.47 in - NNW 6.9 mph - N/A   Unknown
4:00 PM -44.9 °F -64.8 °F -53.1 °F 62% 30.46 in - North 5.8 mph - N/A   Unknown
5:00 PM -44 °F - -53 °F 40% 30.46 in - North 5.8 mph - -  
5:00 PM -44.3 °F -64.2 °F -52.6 °F 62% 30.46 in - North 5.8 mph - N/A   Unknown
6:00 PM -42.7 °F -62.2 °F -50.8 °F 63% 30.46 in - North 5.8 mph - N/A   Unknown
7:00 PM -42.5 °F -66.0 °F -50.6 °F 63% 30.46 in - North 8.1 mph - N/A   Unknown
9:00 PM -43.6 °F -63.3 °F -51.7 °F 63% 30.46 in - North 5.8 mph - N/A   Unknown
10:00 PM -43.1 °F -62.7 °F -51.2 °F 63% 30.46 in - NNW 5.8 mph - N/A   Unknown
11:00 PM -42 °F - -50 °F 44% 30.46 in - NNW 4.6 mph - -  
11:00 PM -41.8 °F -58.7 °F -49.9 °F 63% 30.46 in - NNW 4.6 mph - N/A   Unknown